LiveATC.Net - Listen to live air traffic control over the Internet!


ICAO: ENZV  IATA: SVG   Airport: Stavanger Sola Airport
City: Stavanger
Country: Norway   Continent: Europe
ENZV METAR Weather: ENZV 240120Z VRB02KT 9999 BKN008 15/14 Q1017
ENZV Flight Activity (FlightAware)

ENZV Gnd/Twr/App
Feed Status: UP   Listeners: 0
Listen in your browser - HTML5 player (in browser, HTML5)
Click here to listen with your own player (launches your MP3 player)
Archive Access: ENZV Gnd/Twr/App
FacilityFrequency
Sola Approach/Departure119.600
Sola Ground121.750
Sola Tower118.350

NOTICE

Unauthorized use prohibited. See LiveATC.net Terms of Service


Airport/ARTCC Code
Frequency Search
(e.g., 124.400, 128.75)
Site-wide search
 


Browse Feeds
Top 50 Feeds
HF Oceanic Feeds
Coverage Map
Bad Weather Areas

LiveATC FAQ
Offer LiveATC feed
Contact LiveATC.net
Press Inquiries

LiveATC on iPhone
LiveATC on Android

Windows Phone
Windows 8/10

LiveATC Mobile
(Mobile browser)

ATC Audio Archives
Interesting Recordings

LiveATC Forums


Home Page
About LiveATC.net
Make a Donation
Terms of Use
Privacy Policy

Canadian Air Freqs

AIRMETs/SIGMETs

FAA Airport Status
NAS Status
Arrival Demand


Server Software By:
Icecast.org
Liquidsoap